Showing default

GHGSAT-C6, 56204

Orbit data source: Space-Track

GHGSAT-C6, 56204 is a payload satellite owned by GHG (CA) in SSO that was launched on Sat, 15 Apr 2023 UTC via an FALCON 9 launch vehicle from the Air Force Western Test Range (AFWTR). Payload-class satellites include a variety of spacecraft equipped with specific instruments for various scientific and technological missions. These include communications satellites like Starlink; space stations such as the ISS; scientific satellites like the Hubble; Earth observation satellites from companies like Planet Labs, Umbra, and HawkEye 360; GPS; miniature CubeSats for education and research; and military/defense satellites.

Not visible in the next 10 days
Identifier
56204, 2023-054AC
Orbit
SSO
Country
Flag of CACA
Related business
Manufacturer
UTIAS-SFL
Mission
Operational Commercial Earth Obs Sci
Bus & Motor
NEMO-V1, Unknown motor
Mass
15 kg wet, 15 kg dry
Launch date (UTC)
2023-04-15 (3 years ago)
Launch vehicle
FALCON 9
Launch site
Air Force Western Test Range (AFWTR)
Object type
Payload
Rocket body
Debris
Shape & HBR
Box, 1.0 m
Radar Cross Section
0.100 m², Medium (>0.1 m² and < 1m²)

Expand to show TLE details & history
Last TLE update: 10 hours ago

TLE from 10 hours ago
0 GHGSAT-C6
1 56204U 23054AC  26133.18968550  .00010714  00000-0  18019-3 0  9993
2 56204  97.3073  42.4897 0007655 147.2950 212.8778 15.51893469173022
Epoch: 2026-05-13T04:33Z
TLE epoch observation values (Epoch: 2026-05-13T04:33:08.827Z)
Latitude
-0°
Longitude
103.24965°
Altitude
418.701 km
Speed
7.657 km/s
True Right ascension
02h 49m 57s
True Declination
0° 00' 00"
Sunlit
Object was in daylight at epoch
Visualization orbit readout
Latitude
Unknown
Longitude
Unknown
Altitude
Unknown
Speed
Unknown
Apparent Right ascension
Unknown
Apparent Declination
Unknown
Sunlit
N/A
Visualization observer readout
Local Sidereal Time
23:19:16
Azimuth
Unknown
Elevation
Unknown
Doppler factor
Unknown
Orbital elements
Apogee altitude
413.312 km
Perigee altitude
402.922 km
Semi-major axis
6,786.254 km
Eccentricity
0.00077
Inclination
97.3073°
RAAN
42.4897°
Arg. of periapsis
147.295°
True anomaly
212.83022°
Mean anomaly
212.8778°
Eccentric anomaly
212.85401°
Mean motion
3.88238 °/min
Orbital period
92.73 mins
BSTAR
0.00018019
Loading maneuver chart data...
Computing Atmospheric mass density...
Loading historical data...
Loading historical data...
Loading historical data...
Loading historical data...
Loading historical data...
Loading historical data...
Loading historical data...

Documentation

Showing up to 5 results
|